This is the latest recevied weather packets stored in our database for station/object N6HGA-1. If no packets are shown the sender has not sent any weather packets the latest 10 day(s).
| Time | Temp. | Humidity | Pressure | Rain* | Wind** | Luminosity | Snow |
|---|---|---|---|---|---|---|---|
| 1777600824 | 23.33° C | 49% | - | 0 mm | - | - | - |
| 1777600523 | 23.89° C | 49% | - | 0 mm | - | - | - |
| 1777600223 | 23.89° C | 50% | - | 0 mm | - | - | - |
| 1777599920 | 23.89° C | 50% | - | 0 mm | - | - | - |
| 1777599620 | 23.89° C | 50% | - | 0 mm | - | - | - |
| 1777599019 | 24.44° C | 47% | - | 0 mm | - | - | - |
| 1777598719 | 25° C | 46% | - | 0 mm | - | - | - |
| 1777598419 | 25° C | 44% | - | 0 mm | - | - | - |
| 1777598118 | 25° C | 43% | - | 0 mm | - | - | - |
| 1777597818 | 25.56° C | 43% | - | 0 mm | - | - | - |
| 1777597217 | 26.11° C | 40% | - | 0 mm | - | - | - |
| 1777596617 | 26.67° C | 35% | - | 0 mm | - | - | - |
| 1777596316 | 27.22° C | 36% | - | 0 mm | - | - | - |
| 1777596015 | 27.22° C | 22% | - | 0 mm | - | - | - |
| 1777595413 | 26.67° C | 22% | - | 0 mm | - | - | - |
| 1777595113 | 26.67° C | 21% | - | 0 mm | - | - | - |
| 1777594812 | 26.67° C | 22% | - | 0 mm | - | - | - |
| 1777594508 | 26.67° C | 23% | - | 0 mm | - | - | - |
| 1777594207 | 26.67° C | 22% | - | 0 mm | - | - | - |
| 1777593907 | 26.67° C | 21% | - | 0 mm | - | - | - |
| 1777593607 | 27.22° C | 21% | - | 0 mm | - | - | - |
* Rain since midnight (hover to see other rain measurements)
** Current wind speed in m/s (hover to see current wind gust speed)